Time,TemperatureF,DewpointF,PressureIn,WindDirection,WindDirectionDegrees,WindSpeedMPH,WindSpeedGustMPH,Humidity,HourlyPrecipIn,Conditions,Clouds,dailyrainin,SolarRadiationWatts/m^2,SoftwareType,DateUTC
2013-08-05 00:00:00,70.4,55.2,-100.00,North,10,6.7,9.6,58,0.00,,,-99.99,1.0,HOBO +U30 +Weather +,2013-08-05 06:00:00,
2013-08-05 00:05:00,70.4,55.0,-100.00,North,11,7.4,10.1,58,0.00,,,-99.99,1.0,HOBO +U30 +Weather +,2013-08-05 06:05:00,
2013-08-05 00:10:00,70.4,54.8,-100.00,NNE,13,6.7,10.7,57,0.00,,,-99.99,1.0,HOBO +U30 +Weather +,2013-08-05 06:10:00,
2013-08-05 00:15:00,70.4,54.7,-100.00,North,11,7.4,13.0,57,0.00,,,-99.99,1.0,HOBO +U30 +Weather +,2013-08-05 06:15:00,
2013-08-05 00:26:00,70.5,54.6,-100.00,NNE,17,7.4,10.7,57,0.00,,,-99.99,1.0,HOBO +U30 +Weather +,2013-08-05 06:26:00,
2013-08-05 00:30:00,70.0,54.4,-100.00,NNE,14,8.9,13.4,57,0.00,,,-99.99,1.0,HOBO +U30 +Weather +,2013-08-05 06:30:00,
2013-08-05 00:35:00,69.6,54.2,-100.00,North,11,6.3,9.6,58,0.00,,,-99.99,1.0,HOBO +U30 +Weather +,2013-08-05 06:35:00,
2013-08-05 00:40:00,69.5,54.4,-100.00,NNE,15,6.7,12.3,58,0.00,,,-99.99,1.0,HOBO +U30 +Weather +,2013-08-05 06:40:00,
2013-08-05 00:45:00,69.4,54.3,-100.00,NNE,20,6.3,10.1,58,0.00,,,-99.99,1.0,HOBO +U30 +Weather +,2013-08-05 06:45:00,
2013-08-05 00:50:00,69.3,54.3,-100.00,NNE,20,6.3,8.9,58,0.00,,,-99.99,1.0,HOBO +U30 +Weather +,2013-08-05 06:50:00,
2013-08-05 00:55:00,69.0,54.4,-100.00,NNE,17,6.3,11.2,59,0.00,,,-99.99,1.0,HOBO +U30 +Weather +,2013-08-05 06:55:00,
2013-08-05 01:00:00,68.7,54.4,-100.00,NNE,20,7.8,11.9,60,0.00,,,-99.99,1.0,HOBO +U30 +Weather +,2013-08-05 07:00:00,
2013-08-05 01:05:00,68.5,54.4,-100.00,NNE,18,7.4,12.3,60,0.00,,,-99.99,1.0,HOBO +U30 +Weather +,2013-08-05 07:05:00,
2013-08-05 01:10:00,68.4,54.3,-100.00,NNE,18,7.4,10.7,60,0.00,,,-99.99,1.0,HOBO +U30 +Weather +,2013-08-05 07:10:00,
2013-08-05 01:15:00,68.4,54.3,-100.00,NNE,21,6.3,9.6,60,0.00,,,-99.99,1.0,HOBO +U30 +Weather +,2013-08-05 07:15:00,
2013-08-05 01:20:00,68.2,54.4,-100.00,NNE,17,6.7,9.6,61,0.00,,,-99.99,1.0,HOBO +U30 +Weather +,2013-08-05 07:20:00,
2013-08-05 01:25:00,68.1,54.5,-100.00,NNE,24,6.3,9.6,61,0.00,,,-99.99,1.0,HOBO +U30 +Weather +,2013-08-05 07:25:00,
2013-08-05 01:30:00,68.1,54.5,-100.00,NNE,24,6.3,9.6,61,0.00,,,-99.99,1.0,HOBO +U30 +Weather +,2013-08-05 07:30:00,
2013-08-05 01:35:00,68.0,54.5,-100.00,NNE,22,5.6,8.9,61,0.00,,,-99.99,1.0,HOBO +U30 +Weather +,2013-08-05 07:35:00,
2013-08-05 01:40:00,68.0,54.5,-100.00,NNE,13,5.6,8.9,62,0.00,,,-99.99,1.0,HOBO +U30 +Weather +,2013-08-05 07:40:00,
2013-08-05 01:45:00,67.9,54.7,-100.00,North,10,5.1,7.4,62,0.00,,,-99.99,1.0,HOBO +U30 +Weather +,2013-08-05 07:45:00,
2013-08-05 01:50:00,67.6,54.6,-100.00,North,1,4.5,6.7,63,0.00,,,-99.99,1.0,HOBO +U30 +Weather +,2013-08-05 07:50:00,
2013-08-05 01:55:00,67.5,54.6,-100.00,North,3,5.1,6.3,63,0.00,,,-99.99,1.0,HOBO +U30 +Weather +,2013-08-05 07:55:00,
2013-08-05 02:00:00,67.4,54.6,-100.00,North,7,4.0,5.6,63,0.00,,,-99.99,1.0,HOBO +U30 +Weather +,2013-08-05 08:00:00,
2013-08-05 02:05:00,67.3,54.7,-100.00,North,3,3.4,5.6,63,0.00,,,-99.99,1.0,HOBO +U30 +Weather +,2013-08-05 08:05:00,
2013-08-05 02:10:00,67.1,54.7,-100.00,North,0,4.0,5.6,64,0.00,,,-99.99,1.0,HOBO +U30 +Weather +,2013-08-05 08:10:00,
2013-08-05 02:15:00,67.0,54.8,-100.00,North,0,4.0,5.1,64,0.00,,,-99.99,1.0,HOBO +U30 +Weather +,2013-08-05 08:15:00,
2013-08-05 02:25:00,67.1,54.8,-100.00,NNE,15,4.5,7.4,64,0.00,,,-99.99,1.0,HOBO +U30 +Weather +,2013-08-05 08:25:00,
2013-08-05 02:26:00,67.1,54.8,-100.00,North,6,4.5,6.3,64,0.00,,,-99.99,1.0,HOBO +U30 +Weather +,2013-08-05 08:26:00,
2013-08-05 02:30:00,67.2,54.8,-100.00,NNE,24,2.2,4.5,64,0.00,,,-99.99,1.0,HOBO +U30 +Weather +,2013-08-05 08:30:00,
2013-08-05 02:35:00,67.0,54.9,-100.00,NNE,18,2.2,4.5,64,0.00,,,-99.99,1.0,HOBO +U30 +Weather +,2013-08-05 08:35:00,
2013-08-05 02:40:00,66.9,54.7,-100.00,NNE,14,2.2,4.0,64,0.00,,,-99.99,1.0,HOBO +U30 +Weather +,2013-08-05 08:40:00,
2013-08-05 02:45:00,66.9,54.8,-100.00,North,7,2.9,4.5,65,0.00,,,-99.99,1.0,HOBO +U30 +Weather +,2013-08-05 08:45:00,
2013-08-05 02:50:00,66.9,54.9,-100.00,North,0,2.2,3.4,65,0.00,,,-99.99,1.0,HOBO +U30 +Weather +,2013-08-05 08:50:00,
2013-08-05 02:55:00,66.9,54.9,-100.00,North,0,2.2,4.0,65,0.00,,,-99.99,1.0,HOBO +U30 +Weather +,2013-08-05 08:55:00,
2013-08-05 03:00:00,66.4,54.8,-100.00,North,0,1.8,3.4,66,0.00,,,-99.99,1.0,HOBO +U30 +Weather +,2013-08-05 09:00:00,
2013-08-05 03:05:00,66.2,55.0,-100.00,NNE,20,2.2,4.0,67,0.00,,,-99.99,1.0,HOBO +U30 +Weather +,2013-08-05 09:05:00,
2013-08-05 03:10:00,65.6,55.0,-100.00,NE,38,2.2,3.4,68,0.00,,,-99.99,1.0,HOBO +U30 +Weather +,2013-08-05 09:10:00,
2013-08-05 03:15:00,65.5,55.2,-100.00,NE,38,1.1,2.9,69,0.00,,,-99.99,1.0,HOBO +U30 +Weather +,2013-08-05 09:15:00,
2013-08-05 03:20:00,65.2,55.2,-100.00,NE,46,2.9,4.0,70,0.00,,,-99.99,1.0,HOBO +U30 +Weather +,2013-08-05 09:20:00,
2013-08-05 03:25:00,65.4,55.3,-100.00,ENE,58,3.4,4.5,69,0.00,,,-99.99,1.0,HOBO +U30 +Weather +,2013-08-05 09:25:00,
2013-08-05 03:30:00,65.6,55.2,-100.00,NE,51,2.9,4.5,69,0.00,,,-99.99,1.0,HOBO +U30 +Weather +,2013-08-05 09:30:00,
2013-08-05 03:35:00,65.6,55.3,-100.00,NE,55,3.4,5.1,69,0.00,,,-99.99,1.0,HOBO +U30 +Weather +,2013-08-05 09:35:00,
2013-08-05 03:40:00,65.6,55.3,-100.00,NE,38,3.4,5.1,69,0.00,,,-99.99,1.0,HOBO +U30 +Weather +,2013-08-05 09:40:00,
2013-08-05 03:55:00,66.1,55.6,-100.00,NE,38,0.7,1.8,68,0.00,,,-99.99,1.0,HOBO +U30 +Weather +,2013-08-05 09:55:00,
2013-08-05 04:00:00,65.7,55.5,-100.00,NE,38,0.7,1.8,69,0.00,,,-99.99,1.0,HOBO +U30 +Weather +,2013-08-05 10:00:00,
2013-08-05 04:05:00,65.4,55.3,-100.00,NE,38,1.1,2.2,69,0.00,,,-99.99,1.0,HOBO +U30 +Weather +,2013-08-05 10:05:00,
2013-08-05 04:10:00,65.3,55.6,-100.00,NE,38,0.7,1.8,70,0.00,,,-99.99,1.0,HOBO +U30 +Weather +,2013-08-05 10:10:00,
2013-08-05 04:21:00,65.5,55.5,-100.00,NE,38,0.0,1.1,70,0.00,,,-99.99,1.0,HOBO +U30 +Weather +,2013-08-05 10:21:00,
2013-08-05 04:25:00,65.8,55.7,-100.00,NE,38,0.0,1.1,69,0.00,,,-99.99,1.0,HOBO +U30 +Weather +,2013-08-05 10:25:00,
2013-08-05 04:30:00,65.4,55.7,-100.00,NE,38,0.0,0.7,70,0.00,,,-99.99,1.0,HOBO +U30 +Weather +,2013-08-05 10:30:00,
2013-08-05 04:35:00,65.6,55.9,-100.00,NE,38,0.0,0.7,70,0.00,,,-99.99,1.0,HOBO +U30 +Weather +,2013-08-05 10:35:00,
2013-08-05 04:40:00,65.4,55.9,-100.00,NE,38,0.0,0.0,71,0.00,,,-99.99,1.0,HOBO +U30 +Weather +,2013-08-05 10:40:00,
2013-08-05 04:45:00,65.5,55.9,-100.00,NE,38,0.0,0.7,71,0.00,,,-99.99,1.0,HOBO +U30 +Weather +,2013-08-05 10:45:00,
2013-08-05 04:50:00,65.3,56.0,-100.00,NE,38,0.0,1.1,71,0.00,,,-99.99,1.0,HOBO +U30 +Weather +,2013-08-05 10:50:00,
2013-08-05 04:55:00,64.8,56.0,-100.00,NE,38,0.0,0.7,73,0.00,,,-99.99,1.0,HOBO +U30 +Weather +,2013-08-05 10:55:00,
2013-08-05 05:00:00,65.0,56.1,-100.00,NE,38,0.0,1.8,72,0.00,,,-99.99,1.0,HOBO +U30 +Weather +,2013-08-05 11:00:00,
2013-08-05 05:05:00,65.2,56.2,-100.00,NE,38,0.0,1.1,72,0.00,,,-99.99,1.0,HOBO +U30 +Weather +,2013-08-05 11:05:00,
2013-08-05 05:10:00,65.0,56.3,-100.00,NE,39,0.7,2.2,73,0.00,,,-99.99,1.0,HOBO +U30 +Weather +,2013-08-05 11:10:00,
2013-08-05 05:15:00,64.8,56.3,-100.00,NE,39,0.0,1.8,73,0.00,,,-99.99,1.0,HOBO +U30 +Weather +,2013-08-05 11:15:00,
2013-08-05 05:20:00,64.8,56.2,-100.00,ESE,102,0.0,1.1,73,0.00,,,-99.99,1.0,HOBO +U30 +Weather +,2013-08-05 11:20:00,
2013-08-05 05:25:00,65.1,56.2,-100.00,ESE,117,0.0,0.7,72,0.00,,,-99.99,1.0,HOBO +U30 +Weather +,2013-08-05 11:25:00,
2013-08-05 05:30:00,64.3,55.8,-100.00,East,91,1.1,2.9,73,0.00,,,-99.99,1.0,HOBO +U30 +Weather +,2013-08-05 11:30:00,
2013-08-05 05:35:00,63.6,55.5,-100.00,East,79,1.8,2.9,74,0.00,,,-99.99,1.0,HOBO +U30 +Weather +,2013-08-05 11:35:00,
2013-08-05 05:40:00,63.7,55.8,-100.00,East,79,1.1,2.2,75,0.00,,,-99.99,1.0,HOBO +U30 +Weather +,2013-08-05 11:40:00,
2013-08-05 05:45:00,63.7,55.8,-100.00,East,79,0.0,1.1,75,0.00,,,-99.99,1.0,HOBO +U30 +Weather +,2013-08-05 11:45:00,
2013-08-05 05:50:00,63.6,55.9,-100.00,East,79,0.0,1.1,76,0.00,,,-99.99,1.0,HOBO +U30 +Weather +,2013-08-05 11:50:00,
2013-08-05 05:55:00,63.7,56.2,-100.00,East,79,0.0,1.1,76,0.00,,,-99.99,2.0,HOBO +U30 +Weather +,2013-08-05 11:55:00,
2013-08-05 06:00:00,63.3,56.1,-100.00,East,79,0.0,1.1,77,0.00,,,-99.99,3.0,HOBO +U30 +Weather +,2013-08-05 12:00:00,
2013-08-05 06:05:00,63.0,56.2,-100.00,SSE,149,1.1,2.9,78,0.00,,,-99.99,4.0,HOBO +U30 +Weather +,2013-08-05 12:05:00,
2013-08-05 06:19:00,63.0,56.4,-100.00,South,187,2.2,4.0,78,0.00,,,-99.99,9.0,HOBO +U30 +Weather +,2013-08-05 12:19:00,
2013-08-05 06:20:00,63.4,56.6,-100.00,SSW,206,2.2,4.5,78,0.00,,,-99.99,19.0,HOBO +U30 +Weather +,2013-08-05 12:20:00,
2013-08-05 06:25:00,63.6,56.6,-100.00,SW,219,3.4,6.7,77,0.00,,,-99.99,27.0,HOBO +U30 +Weather +,2013-08-05 12:25:00,
2013-08-05 06:30:00,63.6,56.6,-100.00,SSW,208,3.4,6.7,77,0.00,,,-99.99,36.0,HOBO +U30 +Weather +,2013-08-05 12:30:00,
2013-08-05 06:35:00,63.8,56.6,-100.00,SW,234,4.5,7.4,77,0.00,,,-99.99,26.0,HOBO +U30 +Weather +,2013-08-05 12:35:00,
2013-08-05 06:40:00,63.9,56.4,-100.00,WSW,258,4.5,6.7,76,0.00,,,-99.99,27.0,HOBO +U30 +Weather +,2013-08-05 12:40:00,
2013-08-05 06:45:00,64.0,56.5,-100.00,WSW,253,4.5,7.4,76,0.00,,,-99.99,67.0,HOBO +U30 +Weather +,2013-08-05 12:45:00,
2013-08-05 06:50:00,64.5,56.8,-100.00,WSW,251,1.8,5.1,76,0.00,,,-99.99,82.0,HOBO +U30 +Weather +,2013-08-05 12:50:00,
2013-08-05 06:55:00,64.2,56.8,-100.00,West,277,1.8,5.6,76,0.00,,,-99.99,94.0,HOBO +U30 +Weather +,2013-08-05 12:55:00,
2013-08-05 07:00:00,64.7,56.9,-100.00,West,263,1.1,3.4,75,0.00,,,-99.99,104.0,HOBO +U30 +Weather +,2013-08-05 13:00:00,
2013-08-05 07:05:00,65.0,57.1,-100.00,WNW,292,1.1,4.5,75,0.00,,,-99.99,114.0,HOBO +U30 +Weather +,2013-08-05 13:05:00,
2013-08-05 07:18:00,64.6,56.9,-100.00,WNW,299,2.2,4.5,76,0.00,,,-99.99,127.0,HOBO +U30 +Weather +,2013-08-05 13:18:00,
2013-08-05 07:20:00,64.8,56.9,-100.00,WSW,254,2.9,5.1,75,0.00,,,-99.99,151.0,HOBO +U30 +Weather +,2013-08-05 13:20:00,
2013-08-05 07:25:00,65.4,57.0,-100.00,SW,227,2.9,5.6,74,0.00,,,-99.99,163.0,HOBO +U30 +Weather +,2013-08-05 13:25:00,
2013-08-05 07:30:00,65.8,57.1,-100.00,SW,222,2.9,6.3,73,0.00,,,-99.99,177.0,HOBO +U30 +Weather +,2013-08-05 13:30:00,
2013-08-05 07:35:00,66.2,57.0,-100.00,SSW,198,2.2,5.6,72,0.00,,,-99.99,189.0,HOBO +U30 +Weather +,2013-08-05 13:35:00,
2013-08-05 07:40:00,66.2,57.4,-100.00,SSW,195,3.4,6.3,73,0.00,,,-99.99,201.0,HOBO +U30 +Weather +,2013-08-05 13:40:00,
2013-08-05 07:45:00,65.8,56.8,-100.00,South,191,5.1,7.4,72,0.00,,,-99.99,214.0,HOBO +U30 +Weather +,2013-08-05 13:45:00,
2013-08-05 07:50:00,66.1,56.9,-100.00,South,187,5.1,7.4,72,0.00,,,-99.99,228.0,HOBO +U30 +Weather +,2013-08-05 13:50:00,
2013-08-05 07:55:00,66.1,56.8,-100.00,SSW,202,5.1,7.8,72,0.00,,,-99.99,238.0,HOBO +U30 +Weather +,2013-08-05 13:55:00,
2013-08-05 08:00:00,66.1,57.1,-100.00,SSW,199,4.5,6.7,72,0.00,,,-99.99,252.0,HOBO +U30 +Weather +,2013-08-05 14:00:00,
2013-08-05 08:05:00,66.9,57.2,-100.00,SSW,202,2.9,5.6,70,0.00,,,-99.99,267.0,HOBO +U30 +Weather +,2013-08-05 14:05:00,
2013-08-05 08:16:00,66.7,57.1,-100.00,South,187,5.1,8.5,71,0.00,,,-99.99,279.0,HOBO +U30 +Weather +,2013-08-05 14:16:00,
2013-08-05 08:20:00,67.2,56.9,-100.00,SSW,202,3.4,6.7,69,0.00,,,-99.99,307.0,HOBO +U30 +Weather +,2013-08-05 14:20:00,
2013-08-05 08:25:00,67.5,56.9,-100.00,SSW,212,5.1,7.4,68,0.00,,,-99.99,319.0,HOBO +U30 +Weather +,2013-08-05 14:25:00,
2013-08-05 08:30:00,67.7,56.8,-100.00,SSW,195,5.1,7.4,67,0.00,,,-99.99,333.0,HOBO +U30 +Weather +,2013-08-05 14:30:00,
2013-08-05 08:35:00,69.0,57.5,-100.00,SSW,202,2.2,6.7,66,0.00,,,-99.99,347.0,HOBO +U30 +Weather +,2013-08-05 14:35:00,
2013-08-05 08:40:00,70.3,58.0,-100.00,West,267,1.1,4.0,64,0.00,,,-99.99,357.0,HOBO +U30 +Weather +,2013-08-05 14:40:00,
2013-08-05 08:45:00,70.0,57.8,-100.00,WSW,246,1.1,4.0,65,0.00,,,-99.99,371.0,HOBO +U30 +Weather +,2013-08-05 14:45:00,
2013-08-05 08:50:00,69.0,57.1,-100.00,WSW,239,2.9,5.6,65,0.00,,,-99.99,386.0,HOBO +U30 +Weather +,2013-08-05 14:50:00,
2013-08-05 08:55:00,69.3,57.3,-100.00,WSW,246,2.9,5.6,65,0.00,,,-99.99,398.0,HOBO +U30 +Weather +,2013-08-05 14:55:00,
2013-08-05 09:00:00,70.0,57.6,-100.00,SW,223,2.9,5.6,64,0.00,,,-99.99,412.0,HOBO +U30 +Weather +,2013-08-05 15:00:00,
2013-08-05 09:05:00,70.9,57.8,-100.00,SSW,199,2.9,6.3,63,0.00,,,-99.99,423.0,HOBO +U30 +Weather +,2013-08-05 15:05:00,
2013-08-05 09:15:00,70.5,57.7,-100.00,WSW,250,3.4,6.7,63,0.00,,,-99.99,433.0,HOBO +U30 +Weather +,2013-08-05 15:15:00,
2013-08-05 09:20:00,71.3,58.1,-100.00,SSW,204,5.1,8.5,63,0.00,,,-99.99,461.0,HOBO +U30 +Weather +,2013-08-05 15:20:00,
2013-08-05 09:25:00,71.7,57.9,-100.00,SSW,199,4.5,7.4,61,0.00,,,-99.99,474.0,HOBO +U30 +Weather +,2013-08-05 15:25:00,
2013-08-05 09:30:00,71.5,58.0,-100.00,SW,216,5.1,9.6,62,0.00,,,-99.99,486.0,HOBO +U30 +Weather +,2013-08-05 15:30:00,
2013-08-05 09:35:00,72.0,58.3,-100.00,SSW,202,4.5,7.8,61,0.00,,,-99.99,497.0,HOBO +U30 +Weather +,2013-08-05 15:35:00,
2013-08-05 09:40:00,73.0,58.9,-100.00,SSW,194,4.0,6.3,61,0.00,,,-99.99,511.0,HOBO +U30 +Weather +,2013-08-05 15:40:00,
2013-08-05 09:45:00,72.2,58.5,-100.00,WSW,246,4.0,6.7,61,0.00,,,-99.99,521.0,HOBO +U30 +Weather +,2013-08-05 15:45:00,
2013-08-05 09:50:00,72.9,58.7,-100.00,WSW,253,2.2,5.1,61,0.00,,,-99.99,536.0,HOBO +U30 +Weather +,2013-08-05 15:50:00,
2013-08-05 09:55:00,74.9,59.0,-100.00,SW,223,1.8,6.7,57,0.00,,,-99.99,548.0,HOBO +U30 +Weather +,2013-08-05 15:55:00,
2013-08-05 10:00:00,73.6,58.7,-100.00,WSW,247,4.0,6.3,59,0.00,,,-99.99,557.0,HOBO +U30 +Weather +,2013-08-05 16:00:00,
2013-08-05 10:13:00,73.7,59.1,-100.00,WSW,237,4.0,6.7,60,0.00,,,-99.99,569.0,HOBO +U30 +Weather +,2013-08-05 16:13:00,
2013-08-05 10:15:00,75.3,59.6,-100.00,SSW,211,3.4,6.3,58,0.00,,,-99.99,587.0,HOBO +U30 +Weather +,2013-08-05 16:15:00,
2013-08-05 10:20:00,76.0,59.8,-100.00,SSW,201,2.2,5.6,57,0.00,,,-99.99,596.0,HOBO +U30 +Weather +,2013-08-05 16:20:00,
2013-08-05 10:25:00,75.8,59.5,-100.00,South,191,4.0,7.8,56,0.00,,,-99.99,607.0,HOBO +U30 +Weather +,2013-08-05 16:25:00,
2013-08-05 10:30:00,76.1,59.3,-100.00,SSW,198,5.6,9.6,56,0.00,,,-99.99,616.0,HOBO +U30 +Weather +,2013-08-05 16:30:00,
2013-08-05 10:35:00,76.6,59.6,-100.00,SW,222,3.4,7.4,55,0.00,,,-99.99,626.0,HOBO +U30 +Weather +,2013-08-05 16:35:00,
2013-08-05 10:40:00,76.9,59.5,-100.00,SSW,211,4.0,8.5,55,0.00,,,-99.99,637.0,HOBO +U30 +Weather +,2013-08-05 16:40:00,
2013-08-05 10:45:00,76.9,59.3,-100.00,SSW,204,5.1,8.9,54,0.00,,,-99.99,647.0,HOBO +U30 +Weather +,2013-08-05 16:45:00,
2013-08-05 10:50:00,78.6,60.1,-100.00,SSW,197,3.4,7.8,53,0.00,,,-99.99,657.0,HOBO +U30 +Weather +,2013-08-05 16:50:00,
2013-08-05 10:55:00,78.8,59.7,-100.00,SSE,167,4.5,8.9,52,0.00,,,-99.99,666.0,HOBO +U30 +Weather +,2013-08-05 16:55:00,
2013-08-05 11:00:00,79.9,60.1,-100.00,SSW,206,2.9,6.7,50,0.00,,,-99.99,674.0,HOBO +U30 +Weather +,2013-08-05 17:00:00,
2013-08-05 11:12:00,79.8,60.2,-100.00,SSE,154,5.6,10.1,51,0.00,,,-99.99,683.0,HOBO +U30 +Weather +,2013-08-05 17:12:00,
2013-08-05 11:15:00,78.3,59.5,-100.00,SW,220,6.7,11.2,52,0.00,,,-99.99,699.0,HOBO +U30 +Weather +,2013-08-05 17:15:00,
2013-08-05 11:20:00,81.2,60.0,-100.00,SSW,209,2.9,7.4,48,0.00,,,-99.99,706.0,HOBO +U30 +Weather +,2013-08-05 17:20:00,
2013-08-05 11:25:00,81.5,60.3,-100.00,SSW,198,3.4,5.6,48,0.00,,,-99.99,714.0,HOBO +U30 +Weather +,2013-08-05 17:25:00,
2013-08-05 11:30:00,82.1,60.1,-100.00,WSW,253,2.2,7.4,47,0.00,,,-99.99,724.0,HOBO +U30 +Weather +,2013-08-05 17:30:00,
2013-08-05 11:35:00,82.8,59.8,-100.00,SW,215,3.4,8.5,45,0.00,,,-99.99,732.0,HOBO +U30 +Weather +,2013-08-05 17:35:00,
2013-08-05 11:40:00,82.5,59.8,-100.00,South,185,3.4,7.8,46,0.00,,,-99.99,736.0,HOBO +U30 +Weather +,2013-08-05 17:40:00,
2013-08-05 11:45:00,83.0,59.2,-100.00,SW,236,2.9,6.7,44,0.00,,,-99.99,743.0,HOBO +U30 +Weather +,2013-08-05 17:45:00,
2013-08-05 11:50:00,83.5,59.3,-100.00,South,175,2.9,7.8,44,0.00,,,-99.99,749.0,HOBO +U30 +Weather +,2013-08-05 17:50:00,
2013-08-05 11:55:00,82.7,58.9,-100.00,SSW,199,4.5,7.8,44,0.00,,,-99.99,753.0,HOBO +U30 +Weather +,2013-08-05 17:55:00,
2013-08-05 12:00:00,85.2,58.8,-100.00,South,190,2.2,7.8,40,0.00,,,-99.99,762.0,HOBO +U30 +Weather +,2013-08-05 18:00:00,
2013-08-05 12:11:00,84.8,58.5,-100.00,SSW,195,4.0,7.4,41,0.00,,,-99.99,763.0,HOBO +U30 +Weather +,2013-08-05 18:11:00,
2013-08-05 12:15:00,84.3,57.4,-100.00,SW,222,5.6,9.6,40,0.00,,,-99.99,774.0,HOBO +U30 +Weather +,2013-08-05 18:15:00,
2013-08-05 12:20:00,84.1,56.5,-100.00,SW,220,3.4,8.5,39,0.00,,,-99.99,779.0,HOBO +U30 +Weather +,2013-08-05 18:20:00,
2013-08-05 12:25:00,86.2,58.5,-100.00,SW,219,1.8,4.5,39,0.00,,,-99.99,787.0,HOBO +U30 +Weather +,2013-08-05 18:25:00,
2013-08-05 12:30:00,86.8,56.7,-100.00,SSW,198,4.0,10.7,36,0.00,,,-99.99,789.0,HOBO +U30 +Weather +,2013-08-05 18:30:00,
2013-08-05 12:35:00,86.7,57.3,-100.00,SSW,206,4.0,11.9,36,0.00,,,-99.99,794.0,HOBO +U30 +Weather +,2013-08-05 18:35:00,
2013-08-05 12:40:00,86.4,55.8,-100.00,South,187,4.0,8.5,35,0.00,,,-99.99,794.0,HOBO +U30 +Weather +,2013-08-05 18:40:00,
2013-08-05 12:45:00,87.8,55.7,-100.00,SSE,163,4.0,9.6,33,0.00,,,-99.99,798.0,HOBO +U30 +Weather +,2013-08-05 18:45:00,
2013-08-05 12:50:00,87.6,51.3,-100.00,South,190,4.5,10.1,28,0.00,,,-99.99,803.0,HOBO +U30 +Weather +,2013-08-05 18:50:00,
2013-08-05 12:55:00,88.0,41.4,-100.00,SSW,197,4.5,7.8,19,0.00,,,-99.99,808.0,HOBO +U30 +Weather +,2013-08-05 18:55:00,
2013-08-05 13:09:00,88.4,46.0,-100.00,South,174,2.9,6.7,23,0.00,,,-99.99,808.0,HOBO +U30 +Weather +,2013-08-05 19:09:00,
2013-08-05 13:10:00,87.7,47.1,-100.00,West,272,2.9,7.4,24,0.00,,,-99.99,802.0,HOBO +U30 +Weather +,2013-08-05 19:10:00,
2013-08-05 13:15:00,90.7,46.0,-100.00,NNE,24,1.1,4.5,21,0.00,,,-99.99,811.0,HOBO +U30 +Weather +,2013-08-05 19:15:00,
2013-08-05 13:20:00,89.5,46.8,-100.00,SW,215,3.4,7.4,23,0.00,,,-99.99,812.0,HOBO +U30 +Weather +,2013-08-05 19:20:00,
2013-08-05 13:25:00,88.8,45.9,-100.00,SSW,209,5.1,10.1,22,0.00,,,-99.99,811.0,HOBO +U30 +Weather +,2013-08-05 19:25:00,
2013-08-05 13:30:00,89.7,46.3,-100.00,WNW,292,2.2,7.8,22,0.00,,,-99.99,813.0,HOBO +U30 +Weather +,2013-08-05 19:30:00,
2013-08-05 13:35:00,88.8,44.9,-100.00,ENE,67,3.4,7.8,21,0.00,,,-99.99,812.0,HOBO +U30 +Weather +,2013-08-05 19:35:00,
2013-08-05 13:40:00,88.9,43.8,-100.00,ESE,118,4.0,6.7,20,0.00,,,-99.99,808.0,HOBO +U30 +Weather +,2013-08-05 19:40:00,
2013-08-05 13:45:00,89.8,44.3,-100.00,SSE,159,4.0,8.5,20,0.00,,,-99.99,809.0,HOBO +U30 +Weather +,2013-08-05 19:45:00,
2013-08-05 13:50:00,89.5,41.4,-100.00,South,191,5.6,10.7,18,0.00,,,-99.99,808.0,HOBO +U30 +Weather +,2013-08-05 19:50:00,
2013-08-05 13:55:00,88.7,40.6,-100.00,South,181,7.4,10.7,18,0.00,,,-99.99,802.0,HOBO +U30 +Weather +,2013-08-05 19:55:00,
2013-08-05 14:08:00,88.7,39.5,-100.00,SE,135,6.3,10.1,17,0.00,,,-99.99,801.0,HOBO +U30 +Weather +,2013-08-05 20:08:00,
2013-08-05 14:10:00,91.4,43.8,-100.00,South,171,2.9,7.4,19,0.00,,,-99.99,792.0,HOBO +U30 +Weather +,2013-08-05 20:10:00,
2013-08-05 14:15:00,91.1,41.1,-100.00,SE,135,3.4,11.9,17,0.00,,,-99.99,789.0,HOBO +U30 +Weather +,2013-08-05 20:15:00,
2013-08-05 14:20:00,89.7,40.8,-100.00,SSW,202,6.7,10.7,18,0.00,,,-99.99,783.0,HOBO +U30 +Weather +,2013-08-05 20:20:00,
2013-08-05 14:25:00,90.8,42.2,-100.00,NW,313,3.4,9.6,18,0.00,,,-99.99,778.0,HOBO +U30 +Weather +,2013-08-05 20:25:00,
2013-08-05 14:30:00,90.9,42.0,-100.00,NE,52,2.2,6.3,18,0.00,,,-99.99,777.0,HOBO +U30 +Weather +,2013-08-05 20:30:00,
2013-08-05 14:35:00,93.1,39.5,-100.00,SE,142,2.2,6.7,15,0.00,,,-99.99,777.0,HOBO +U30 +Weather +,2013-08-05 20:35:00,
2013-08-05 14:40:00,92.5,42.0,-100.00,South,190,3.4,6.7,17,0.00,,,-99.99,761.0,HOBO +U30 +Weather +,2013-08-05 20:40:00,
2013-08-05 14:45:00,92.8,41.8,-100.00,WNW,298,2.2,6.7,17,0.00,,,-99.99,756.0,HOBO +U30 +Weather +,2013-08-05 20:45:00,
2013-08-05 14:50:00,90.1,40.7,-100.00,WSW,251,5.1,8.9,17,0.00,,,-99.99,748.0,HOBO +U30 +Weather +,2013-08-05 20:50:00,
2013-08-05 14:55:00,92.8,42.2,-100.00,WSW,253,0.7,4.0,17,0.00,,,-99.99,743.0,HOBO +U30 +Weather +,2013-08-05 20:55:00,
2013-08-05 15:06:00,91.6,40.5,-100.00,WSW,256,3.4,13.0,16,0.00,,,-99.99,741.0,HOBO +U30 +Weather +,2013-08-05 21:06:00,
2013-08-05 15:10:00,91.8,41.5,-100.00,WSW,240,4.0,10.1,17,0.00,,,-99.99,732.0,HOBO +U30 +Weather +,2013-08-05 21:10:00,
2013-08-05 15:15:00,92.7,43.0,-100.00,SW,232,2.2,5.1,18,0.00,,,-99.99,739.0,HOBO +U30 +Weather +,2013-08-05 21:15:00,
2013-08-05 15:20:00,92.7,41.2,-100.00,WSW,253,2.9,8.5,16,0.00,,,-99.99,733.0,HOBO +U30 +Weather +,2013-08-05 21:20:00,
2013-08-05 15:25:00,90.7,40.8,-100.00,SSW,208,10.1,16.3,17,0.00,,,-99.99,717.0,HOBO +U30 +Weather +,2013-08-05 21:25:00,
2013-08-05 15:30:00,92.0,41.5,-100.00,SSW,206,5.1,8.9,17,0.00,,,-99.99,714.0,HOBO +U30 +Weather +,2013-08-05 21:30:00,
2013-08-05 15:35:00,91.4,41.2,-100.00,WSW,243,6.3,11.9,17,0.00,,,-99.99,548.0,HOBO +U30 +Weather +,2013-08-05 21:35:00,
2013-08-05 15:40:00,92.2,41.4,-100.00,SSW,211,5.1,11.2,17,0.00,,,-99.99,716.0,HOBO +U30 +Weather +,2013-08-05 21:40:00,
2013-08-05 15:45:00,93.0,42.1,-100.00,SW,225,6.3,14.5,17,0.00,,,-99.99,696.0,HOBO +U30 +Weather +,2013-08-05 21:45:00,
2013-08-05 15:50:00,91.9,41.8,-100.00,South,170,6.7,11.9,17,0.00,,,-99.99,546.0,HOBO +U30 +Weather +,2013-08-05 21:50:00,
2013-08-05 15:55:00,91.5,41.6,-100.00,South,184,7.8,13.0,17,0.00,,,-99.99,409.0,HOBO +U30 +Weather +,2013-08-05 21:55:00,
2013-08-05 16:05:00,90.1,40.2,-100.00,SSW,197,10.1,16.3,17,0.00,,,-99.99,142.0,HOBO +U30 +Weather +,2013-08-05 22:05:00,
2013-08-05 16:10:00,90.4,40.1,-100.00,SSW,201,8.9,15.9,17,0.00,,,-99.99,117.0,HOBO +U30 +Weather +,2013-08-05 22:10:00,
2013-08-05 16:15:00,90.0,39.9,-100.00,SSW,194,10.7,15.2,17,0.00,,,-99.99,228.0,HOBO +U30 +Weather +,2013-08-05 22:15:00,
2013-08-05 16:20:00,90.1,40.4,-100.00,South,184,11.2,14.5,17,0.00,,,-99.99,309.0,HOBO +U30 +Weather +,2013-08-05 22:20:00,
2013-08-05 16:25:00,89.9,37.9,-100.00,SSW,197,13.4,20.8,16,0.00,,,-99.99,164.0,HOBO +U30 +Weather +,2013-08-05 22:25:00,
2013-08-05 16:30:00,90.1,37.1,-100.00,SSW,209,10.1,17.0,15,0.00,,,-99.99,177.0,HOBO +U30 +Weather +,2013-08-05 22:30:00,
2013-08-05 16:35:00,90.3,37.9,-100.00,SSW,213,7.4,12.3,15,0.00,,,-99.99,164.0,HOBO +U30 +Weather +,2013-08-05 22:35:00,
2013-08-05 16:40:00,89.6,37.8,-100.00,SW,223,5.6,10.7,16,0.00,,,-99.99,127.0,HOBO +U30 +Weather +,2013-08-05 22:40:00,
2013-08-05 16:45:00,88.4,39.3,-100.00,NW,313,7.8,14.5,17,0.00,,,-99.99,103.0,HOBO +U30 +Weather +,2013-08-05 22:45:00,
2013-08-05 16:50:00,86.3,45.1,-100.00,North,355,14.1,21.9,23,0.00,,,-99.99,97.0,HOBO +U30 +Weather +,2013-08-05 22:50:00,
2013-08-05 17:03:00,86.3,45.3,-100.00,North,4,10.7,19.7,24,0.00,,,-99.99,82.0,HOBO +U30 +Weather +,2013-08-05 23:03:00,
2013-08-05 17:05:00,84.9,44.7,-100.00,North,355,17.4,25.9,24,0.00,,,-99.99,87.0,HOBO +U30 +Weather +,2013-08-05 23:05:00,
2013-08-05 17:10:00,84.5,45.0,-100.00,North,355,18.1,25.9,25,0.00,,,-99.99,96.0,HOBO +U30 +Weather +,2013-08-05 23:10:00,
2013-08-05 17:15:00,84.3,45.3,-100.00,North,4,17.0,24.2,25,0.00,,,-99.99,89.0,HOBO +U30 +Weather +,2013-08-05 23:15:00,
2013-08-05 17:20:00,84.2,45.2,-100.00,North,354,14.5,20.8,25,0.00,,,-99.99,77.0,HOBO +U30 +Weather +,2013-08-05 23:20:00,
2013-08-05 17:25:00,84.0,45.5,-100.00,North,354,11.2,20.8,26,0.00,,,-99.99,59.0,HOBO +U30 +Weather +,2013-08-05 23:25:00,
2013-08-05 17:30:00,83.7,46.0,-100.00,North,355,11.9,21.9,26,0.00,,,-99.99,56.0,HOBO +U30 +Weather +,2013-08-05 23:30:00,
2013-08-05 17:35:00,84.2,45.2,-100.00,North,355,9.6,17.0,25,0.00,,,-99.99,66.0,HOBO +U30 +Weather +,2013-08-05 23:35:00,
2013-08-05 17:40:00,83.3,47.6,-100.00,North,350,12.3,21.5,28,0.00,,,-99.99,68.0,HOBO +U30 +Weather +,2013-08-05 23:40:00,
2013-08-05 17:45:00,83.4,44.6,-100.00,North,352,17.4,32.2,25,0.00,,,-99.99,57.0,HOBO +U30 +Weather +,2013-08-05 23:45:00,
2013-08-05 17:50:00,83.7,45.6,-100.00,NNW,333,15.9,27.5,26,0.00,,,-99.99,39.0,HOBO +U30 +Weather +,2013-08-05 23:50:00,
2013-08-05 18:02:00,83.8,43.0,-100.00,NNW,348,17.0,25.3,23,0.00,,,-99.99,24.0,HOBO +U30 +Weather +,2013-08-06 00:02:00,
2013-08-05 18:05:00,82.8,46.3,-100.00,NW,307,8.5,17.0,27,0.00,,,-99.99,16.0,HOBO +U30 +Weather +,2013-08-06 00:05:00,
2013-08-05 18:10:00,83.1,45.4,-100.00,WNW,303,8.9,17.0,26,0.00,,,-99.99,21.0,HOBO +U30 +Weather +,2013-08-06 00:10:00,
2013-08-05 18:15:00,83.9,43.5,-100.00,WNW,296,9.6,17.4,24,0.00,,,-99.99,24.0,HOBO +U30 +Weather +,2013-08-06 00:15:00,
2013-08-05 18:20:00,83.0,45.6,-100.00,NW,320,11.9,18.6,27,0.00,,,-99.99,27.0,HOBO +U30 +Weather +,2013-08-06 00:20:00,
2013-08-05 18:25:00,82.9,44.3,-100.00,NNW,327,11.2,18.6,25,0.00,,,-99.99,23.0,HOBO +U30 +Weather +,2013-08-06 00:25:00,
2013-08-05 18:30:00,83.6,44.2,-100.00,WNW,298,13.0,20.4,25,0.00,,,-99.99,19.0,HOBO +U30 +Weather +,2013-08-06 00:30:00,
2013-08-05 18:35:00,83.0,43.7,-100.00,WNW,298,16.3,31.5,25,0.00,,,-99.99,17.0,HOBO +U30 +Weather +,2013-08-06 00:35:00,
2013-08-05 18:40:00,78.5,48.5,-100.00,WNW,296,23.0,43.8,34,0.00,,,-99.99,17.0,HOBO +U30 +Weather +,2013-08-06 00:40:00,
2013-08-05 18:45:00,75.9,50.2,-100.00,WNW,292,23.0,36.7,40,0.00,,,-99.99,16.0,HOBO +U30 +Weather +,2013-08-06 00:45:00,
2013-08-05 18:50:00,75.3,49.4,-100.00,WNW,296,20.4,31.5,40,0.00,,,-99.99,18.0,HOBO +U30 +Weather +,2013-08-06 00:50:00,
2013-08-05 19:00:00,74.5,49.4,-100.00,WNW,295,18.1,37.8,41,0.00,,,-99.99,23.0,HOBO +U30 +Weather +,2013-08-06 01:00:00,
2013-08-05 19:05:00,74.6,47.9,-100.00,NW,324,21.5,32.7,38,0.00,,,-99.99,47.0,HOBO +U30 +Weather +,2013-08-06 01:05:00,
2013-08-05 19:10:00,74.1,49.0,-100.00,North,350,19.7,30.4,41,0.00,,,-99.99,227.0,HOBO +U30 +Weather +,2013-08-06 01:10:00,
2013-08-05 19:15:00,73.3,50.4,-100.00,NNW,336,15.2,25.3,44,0.00,,,-99.99,251.0,HOBO +U30 +Weather +,2013-08-06 01:15:00,
2013-08-05 19:20:00,72.8,50.8,-100.00,North,352,13.4,23.7,45,0.00,,,-99.99,234.0,HOBO +U30 +Weather +,2013-08-06 01:20:00,
2013-08-05 19:25:00,73.0,50.2,-100.00,North,1,8.9,13.4,44,0.00,,,-99.99,82.0,HOBO +U30 +Weather +,2013-08-06 01:25:00,
2013-08-05 19:30:00,73.9,49.5,-100.00,North,354,8.5,14.5,42,0.00,,,-99.99,87.0,HOBO +U30 +Weather +,2013-08-06 01:30:00,
2013-08-05 19:35:00,74.2,49.4,-100.00,North,355,7.8,11.9,41,0.00,,,-99.99,44.0,HOBO +U30 +Weather +,2013-08-06 01:35:00,
2013-08-05 19:40:00,74.2,49.7,-100.00,North,350,6.7,10.1,42,0.00,,,-99.99,37.0,HOBO +U30 +Weather +,2013-08-06 01:40:00,
2013-08-05 19:45:00,74.2,49.8,-100.00,North,355,9.6,14.1,42,0.00,,,-99.99,29.0,HOBO +U30 +Weather +,2013-08-06 01:45:00,
2013-08-05 19:58:00,74.6,48.7,-100.00,North,0,7.8,14.1,40,0.00,,,-99.99,22.0,HOBO +U30 +Weather +,2013-08-06 01:58:00,
2013-08-05 20:00:00,74.4,49.5,-100.00,NNE,28,6.3,9.6,41,0.00,,,-99.99,12.0,HOBO +U30 +Weather +,2013-08-06 02:00:00,
2013-08-05 20:05:00,74.2,49.4,-100.00,NE,38,5.1,7.4,41,0.00,,,-99.99,14.0,HOBO +U30 +Weather +,2013-08-06 02:05:00,
2013-08-05 20:10:00,74.1,49.5,-100.00,NNE,14,3.4,5.1,41,0.00,,,-99.99,4.0,HOBO +U30 +Weather +,2013-08-06 02:10:00,
2013-08-05 20:15:00,73.9,49.7,-100.00,North,8,1.8,4.5,42,0.00,,,-99.99,3.0,HOBO +U30 +Weather +,2013-08-06 02:15:00,
2013-08-05 20:20:00,73.7,50.2,-100.00,North,1,1.1,4.0,43,0.00,,,-99.99,2.0,HOBO +U30 +Weather +,2013-08-06 02:20:00,
2013-08-05 20:25:00,73.4,50.6,-100.00,NW,306,1.8,4.0,44,0.00,,,-99.99,1.0,HOBO +U30 +Weather +,2013-08-06 02:25:00,
2013-08-05 20:30:00,73.5,50.8,-100.00,West,270,1.1,3.4,44,0.00,,,-99.99,1.0,HOBO +U30 +Weather +,2013-08-06 02:30:00,
2013-08-05 20:35:00,74.0,50.1,-100.00,South,184,4.0,6.3,42,0.00,,,-99.99,1.0,HOBO +U30 +Weather +,2013-08-06 02:35:00,
2013-08-05 20:40:00,74.4,50.2,-100.00,SSW,199,7.4,11.9,42,0.00,,,-99.99,1.0,HOBO +U30 +Weather +,2013-08-06 02:40:00,
2013-08-05 20:45:00,73.8,49.8,-100.00,SSE,163,4.5,7.8,42,0.00,,,-99.99,1.0,HOBO +U30 +Weather +,2013-08-06 02:45:00,
2013-08-05 20:57:00,73.8,49.6,-100.00,SE,126,3.4,5.6,42,0.00,,,-99.99,1.0,HOBO +U30 +Weather +,2013-08-06 02:57:00,
2013-08-05 21:00:00,73.8,48.9,-100.00,SSE,161,7.4,9.6,41,0.00,,,-99.99,1.0,HOBO +U30 +Weather +,2013-08-06 03:00:00,
2013-08-05 21:05:00,73.9,48.7,-100.00,SSE,152,7.4,11.2,41,0.00,,,-99.99,1.0,HOBO +U30 +Weather +,2013-08-06 03:05:00,
2013-08-05 21:10:00,74.3,48.5,-100.00,SW,218,5.6,9.6,40,0.00,,,-99.99,1.0,HOBO +U30 +Weather +,2013-08-06 03:10:00,
2013-08-05 21:15:00,74.8,47.6,-100.00,South,184,4.0,7.4,38,0.00,,,-99.99,1.0,HOBO +U30 +Weather +,2013-08-06 03:15:00,
2013-08-05 21:20:00,74.8,47.3,-100.00,South,171,8.5,11.9,37,0.00,,,-99.99,1.0,HOBO +U30 +Weather +,2013-08-06 03:20:00,
2013-08-05 21:25:00,74.2,47.4,-100.00,South,175,4.0,9.6,38,0.00,,,-99.99,1.0,HOBO +U30 +Weather +,2013-08-06 03:25:00,
2013-08-05 21:30:00,74.0,47.3,-100.00,SSE,164,1.8,5.6,38,0.00,,,-99.99,1.0,HOBO +U30 +Weather +,2013-08-06 03:30:00,
2013-08-05 21:35:00,74.0,47.2,-100.00,SSW,197,4.5,6.7,38,0.00,,,-99.99,1.0,HOBO +U30 +Weather +,2013-08-06 03:35:00,
2013-08-05 21:40:00,74.1,47.3,-100.00,SW,219,2.2,4.5,38,0.00,,,-99.99,1.0,HOBO +U30 +Weather +,2013-08-06 03:40:00,
2013-08-05 21:45:00,74.0,47.2,-100.00,SSW,205,1.8,4.0,38,0.00,,,-99.99,1.0,HOBO +U30 +Weather +,2013-08-06 03:45:00,
2013-08-05 21:55:00,74.0,47.0,-100.00,West,260,1.1,4.0,38,0.00,,,-99.99,1.0,HOBO +U30 +Weather +,2013-08-06 03:55:00,
2013-08-05 22:00:00,72.4,47.8,-100.00,NNW,327,5.6,13.0,41,0.00,,,-99.99,1.0,HOBO +U30 +Weather +,2013-08-06 04:00:00,
2013-08-05 22:05:00,72.2,49.9,-100.00,NNW,340,10.1,16.3,45,0.00,,,-99.99,1.0,HOBO +U30 +Weather +,2013-08-06 04:05:00,
2013-08-05 22:10:00,71.7,51.0,-100.00,NNW,338,9.6,14.1,47,0.00,,,-99.99,1.0,HOBO +U30 +Weather +,2013-08-06 04:10:00,
2013-08-05 22:15:00,72.1,50.5,-100.00,NNW,340,7.8,11.9,46,0.00,,,-99.99,1.0,HOBO +U30 +Weather +,2013-08-06 04:15:00,
2013-08-05 22:20:00,72.3,50.3,-100.00,North,355,5.1,8.5,45,0.00,,,-99.99,1.0,HOBO +U30 +Weather +,2013-08-06 04:20:00,
2013-08-05 22:25:00,71.5,51.2,-100.00,NNW,345,2.9,5.1,48,0.00,,,-99.99,1.0,HOBO +U30 +Weather +,2013-08-06 04:25:00,
2013-08-05 22:30:00,71.6,50.6,-100.00,NW,312,3.4,6.3,47,0.00,,,-99.99,1.0,HOBO +U30 +Weather +,2013-08-06 04:30:00,
2013-08-05 22:35:00,71.7,50.8,-100.00,NW,310,4.5,9.6,47,0.00,,,-99.99,1.0,HOBO +U30 +Weather +,2013-08-06 04:35:00,
2013-08-05 22:40:00,72.4,49.9,-100.00,NNW,334,7.8,11.9,45,0.00,,,-99.99,1.0,HOBO +U30 +Weather +,2013-08-06 04:40:00,
2013-08-05 22:54:00,72.9,49.6,-100.00,North,355,8.5,13.0,43,0.00,,,-99.99,1.0,HOBO +U30 +Weather +,2013-08-06 04:54:00,
2013-08-05 22:55:00,72.0,50.6,-100.00,NNE,31,6.3,10.7,46,0.00,,,-99.99,1.0,HOBO +U30 +Weather +,2013-08-06 04:55:00,
2013-08-05 23:00:00,71.4,50.7,-100.00,ENE,69,6.3,8.5,48,0.00,,,-99.99,1.0,HOBO +U30 +Weather +,2013-08-06 05:00:00,
2013-08-05 23:05:00,71.3,50.5,-100.00,ENE,59,4.0,5.6,47,0.00,,,-99.99,1.0,HOBO +U30 +Weather +,2013-08-06 05:05:00,
2013-08-05 23:10:00,71.2,50.6,-100.00,NNE,25,3.4,5.1,48,0.00,,,-99.99,1.0,HOBO +U30 +Weather +,2013-08-06 05:10:00,
2013-08-05 23:15:00,71.2,50.8,-100.00,NNE,17,4.0,5.1,48,0.00,,,-99.99,1.0,HOBO +U30 +Weather +,2013-08-06 05:15:00,
2013-08-05 23:20:00,71.0,50.8,-100.00,North,11,2.9,5.1,48,0.00,,,-99.99,1.0,HOBO +U30 +Weather +,2013-08-06 05:20:00,
2013-08-05 23:25:00,70.9,50.8,-100.00,NNW,344,2.2,4.0,48,0.00,,,-99.99,1.0,HOBO +U30 +Weather +,2013-08-06 05:25:00,
2013-08-05 23:30:00,71.0,50.7,-100.00,North,351,1.8,5.1,48,0.00,,,-99.99,1.0,HOBO +U30 +Weather +,2013-08-06 05:30:00,
2013-08-05 23:35:00,71.1,50.6,-100.00,North,0,1.1,5.6,48,0.00,,,-99.99,1.0,HOBO +U30 +Weather +,2013-08-06 05:35:00,
2013-08-05 23:40:00,71.1,50.6,-100.00,North,355,1.1,4.5,48,0.00,,,-99.99,1.0,HOBO +U30 +Weather +,2013-08-06 05:40:00,
2013-08-05 23:45:00,71.2,50.7,-100.00,North,355,1.1,4.0,48,0.00,,,-99.99,1.0,HOBO +U30 +Weather +,2013-08-06 05:45:00,
2013-08-05 23:50:00,70.9,50.8,-100.00,North,355,1.1,2.2,49,0.00,,,-99.99,1.0,HOBO +U30 +Weather +,2013-08-06 05:50:00,
2013-08-05 23:55:00,70.7,50.8,-100.00,North,355,0.7,2.9,49,0.00,,,-99.99,1.0,HOBO +U30 +Weather +,2013-08-06 05:55:00,